GFSGBSN_sfc_temp_132.txt.gz
Temp
63 62 62 62 62 61 61 61 61 61 61 61 61 61 60 60 60 60 60 60 60 60 60 61 62 62 71 78 81 91 79 80 90 91 90 89 87 86 82 84 84 80 78 78 79 79 71
62 62 62 63 62 61 61 61 60 60 60 59 60 60 59 59 59 59 59 59 59 59 60 61 62 62 75 77 89 90 90 89 92 91 89 91 88 89 85 83 83 83 80 78 79 77 75
61 62 62 62 62 61 61 61 61 60 60 59 59 59 59 59 59 59 59 58 58 59 60 61 62 71 80 80 91 93 91 91 92 92 89 91 91 88 87 81 87 83 75 77 76 76 72
61 61 61 61 61 60 60 60 60 60 60 59 59 59 59 59 59 59 58 57 59 60 60 62 63 75 81 90 93 91 93 89 92 93 92 92 92 90 87 87 81 77 78 70 73 75 75
61 61 61 61 61 60 60 60 60 59 60 59 59 59 58 59 59 58 57 57 61 62 62 64 74 78 80 79 85 92 93 87 89 90 91 91 91 87 86 80 76 77 72 70 67 74 73
62 61 61 61 60 60 60 60 59 59 59 59 59 59 58 58 58 57 56 57 62 64 70 75 78 78 85 83 88 89 93 91 86 87 85 86 86 82 83 81 71 72 71 71 68 70 73
62 61 61 60 60 60 60 59 59 59 59 59 59 59 58 58 58 56 62 77 79 78 79 80 83 82 85 91 92 88 91 89 88 85 78 83 78 75 80 82 80 78 74 70 72 73 72
61 61 61 60 60 60 60 59 59 59 59 59 59 58 58 57 57 56 68 86 82 83 79 84 82 83 87 90 81 86 92 83 81 76 80 77 74 83 82 80 78 77 73 70 72 73 72
61 60 60 60 60 59 59 59 59 59 58 58 58 58 57 57 56 63 83 84 89 86 81 82 86 85 87 89 83 83 88 84 79 75 77 76 80 81 79 77 76 77 74 72 71 72 74
60 60 60 60 60 59 59 59 59 58 58 58 58 57 57 55 63 85 86 86 88 85 77 76 82 85 87 88 81 91 92 86 80 75 77 78 82 78 78 77 79 74 79 74 70 70 66
60 60 60 59 59 59 59 58 58 58 58 57 57 57 55 54 76 86 85 89 90 86 62 79 82 93 89 84 84 84 93 86 77 76 78 75 75 76 75 77 81 75 79 76 74 72 71
60 60 60 59 59 59 58 58 58 58 57 57 57 56 55 65 76 86 88 89 86 71 58 74 82 80 81 83 82 86 84 89 87 79 80 78 84 82 81 83 82 81 77 74 74 73 64
60 60 60 59 59 59 58 58 59 58 57 56 55 54 57 75 87 88 88 86 72 67 77 72 75 80 79 77 78 81 78 77 76 69 69 76 77 83 83 77 81 79 76 65 62 63 63
60 60 59 59 58 58 59 59 58 58 57 55 54 52 61 77 87 84 87 79 63 70 72 80 78 78 75 78 77 78 77 75 79 77 75 69 65 77 83 79 76 76 77 68 52 55 59
59 59 60 59 58 58 58 59 58 58 57 55 52 78 82 86 82 82 82 71 71 72 77 75 78 73 73 77 77 77 76 76 78 80 71 72 69 82 82 85 82 77 71 82 68 69 66
59 59 59 59 58 58 58 58 57 57 57 55 74 85 87 85 84 85 78 64 74 79 79 79 70 74 69 73 73 74 74 79 77 80 82 76 67 78 78 81 82 79 84 69 72 54 53
59 59 59 59 58 58 58 58 58 57 56 55 77 82 83 86 86 82 73 75 77 82 80 77 74 73 73 72 74 73 74 78 80 79 81 80 76 71 77 74 74 75 74 75 75 69 53
59 59 59 59 58 58 59 59 57 56 54 63 79 76 84 86 77 82 77 78 65 81 83 81 80 77 75 75 73 73 72 76 81 82 76 80 79 69 73 78 79 79 73 75 64 56 68
59 59 59 59 58 59 59 58 57 55 54 66 75 81 86 86 73 75 78 78 80 80 81 79 78 79 79 75 69 74 75 80 81 80 77 80 75 66 69 75 77 75 77 78 79 55 51
59 59 59 59 58 59 59 58 56 55 54 64 72 73 80 81 82 78 76 76 76 81 81 82 79 80 77 74 77 72 74 78 80 80 66 75 77 70 62 67 73 69 73 75 76 69 69
59 59 59 59 59 59 59 58 57 55 54 64 75 76 72 73 77 78 78 77 75 74 80 82 76 78 75 70 72 72 76 78 80 70 78 79 69 72 72 73 73 72 71 73 72 73 69
59 59 59 58 59 59 59 58 57 56 55 68 69 69 79 74 71 75 66 74 75 78 78 77 75 78 78 73 74 71 75 75 75 79 78 79 69 71 67 71 72 71 71 69 72 73 73
59 59 59 59 59 59 58 58 57 56 56 69 72 73 69 66 74 74 75 75 76 77 80 82 80 78 76 78 81 81 83 80 80 76 73 73 73 67 61 69 68 64 71 71 70 72 73
58 58 59 59 59 59 58 58 58 57 57 64 60 65 68 67 71 73 75 76 75 75 74 81 81 78 78 85 84 83 82 80 79 78 81 71 69 70 64 66 53 68 74 73 71 71 73
58 58 58 58 58 58 58 59 58 58 57 63 61 63 67 64 72 73 72 73 74 75 73 77 79 82 85 82 75 68 70 70 73 74 77 78 72 67 61 62 66 68 70 71 69 71 74
58 58 58 58 58 58 58 59 59 58 57 63 63 61 62 62 68 74 71 73 71 72 73 77 76 85 85 79 72 59 61 64 63 66 75 74 73 68 65 57 53 67 72 76 76 64 77
58 58 57 57 58 58 58 59 59 59 58 61 62 60 60 61 72 72 70 72 74 73 74 75 73 73 82 73 66 63 63 67 59 61 62 66 67 63 64 60 66 72 74 76 60 65 75
57 57 57 57 57 57 58 58 59 59 58 60 61 62 59 63 70 72 75 72 73 72 70 74 71 73 74 68 69 66 64 65 65 68 65 64 63 64 64 59 55 75 72 66 71 75 76
57 57 57 57 57 57 57 58 58 58 58 58 56 62 61 52 64 70 72 75 75 75 73 73 73 74 79 73 73 74 66 68 66 60 70 63 69 67 66 66 71 76 74 77 78 76 75

GFSGBSN_sfc_temp_138.txt.gz
Temp
63 63 63 62 62 61 62 62 62 62 61 61 61 60 60 60 60 61 61 61 60 60 60 61 63 63 70 77 86 89 80 82 90 91 91 93 90 90 82 81 88 84 83 85 83 84 78
63 62 62 62 61 61 61 61 61 61 61 61 61 60 60 60 60 61 61 61 60 60 61 62 63 63 74 77 99 95 96 92 95 94 95 97 94 97 88 86 83 76 76 84 82 81 81
62 62 62 62 61 61 61 61 61 61 61 61 61 60 60 60 60 61 60 60 60 60 61 63 63 72 76 86 100 101 98 96 99 99 95 99 100 95 95 89 88 76 75 80 81 80 78
62 62 62 62 61 61 61 61 60 60 60 61 60 60 60 60 60 60 59 59 59 61 63 63 64 75 83 99 102 99 101 98 101 102 100 102 100 94 92 92 86 84 82 69 79 78 79
62 62 61 61 61 61 60 61 60 60 60 59 59 59 59 60 60 59 58 58 60 63 65 65 71 80 84 88 93 100 102 95 97 99 99 100 96 90 92 73 75 83 72 66 62 76 78
62 62 62 61 61 61 60 60 60 60 60 59 59 59 59 59 59 58 57 57 67 64 69 81 84 82 91 88 95 98 101 98 93 93 91 90 88 83 85 82 68 65 71 73 59 75 77
62 62 61 61 61 61 60 60 60 60 60 59 59 59 59 59 58 56 63 81 79 79 84 86 89 89 91 96 99 94 98 95 94 89 80 86 79 76 82 85 83 77 76 70 72 77 76
62 61 61 61 61 61 60 59 59 60 59 59 59 58 58 57 57 56 62 81 91 94 83 94 93 93 96 98 87 92 98 88 85 79 85 82 75 85 89 89 85 81 76 74 77 82 79
61 61 61 60 60 59 59 59 59 59 59 59 58 58 57 57 56 63 85 94 102 100 84 89 94 93 93 95 89 88 94 90 84 81 82 79 83 89 87 85 80 81 76 73 71 77 81
61 61 60 60 60 59 59 59 59 59 58 58 58 58 57 54 64 93 93 100 104 101 75 81 87 91 94 95 86 97 97 91 85 81 83 82 89 86 84 82 83 76 83 79 75 73 67
61 60 60 60 60 60 59 58 58 58 58 58 58 57 56 54 71 87 97 104 102 96 59 85 88 101 96 89 89 89 97 91 82 83 83 79 83 81 79 81 85 79 84 81 77 72 76
61 61 60 60 60 59 59 58 58 58 58 58 57 57 55 71 74 90 101 102 97 73 61 80 89 86 85 89 88 90 89 93 92 84 84 83 90 86 84 87 88 89 82 80 76 74 65
61 61 60 60 59 59 58 58 58 58 57 57 56 55 56 77 88 103 102 93 72 65 85 80 82 86 85 83 84 85 82 81 78 72 73 80 82 87 89 82 87 84 78 65 63 64 61
61 61 60 60 59 59 59 58 58 58 57 56 55 54 65 83 98 99 94 80 63 78 80 87 85 84 80 84 84 84 81 78 85 82 78 73 69 81 87 82 79 80 78 67 54 53 50
61 61 60 59 59 59 58 58 58 57 57 56 54 87 86 92 93 95 84 70 71 80 85 82 85 78 80 83 82 82 80 81 84 85 74 74 73 87 88 88 85 79 73 83 70 72 60
61 61 60 60 59 59 58 58 58 57 57 56 69 84 91 101 100 91 78 65 79 88 87 85 76 81 74 79 78 79 79 85 83 86 88 81 70 82 86 88 87 82 86 71 74 58 52
61 61 60 60 59 59 59 58 58 57 56 56 73 81 97 103 98 84 71 77 85 91 88 83 80 79 80 78 81 78 79 84 86 85 87 84 79 76 82 76 76 78 75 72 72 65 59
61 60 60 60 59 59 59 58 57 55 54 67 80 75 98 101 78 81 76 82 77 88 90 86 85 83 81 81 79 79 78 82 88 88 80 85 80 69 70 73 83 79 74 69 63 47 56
61 60 60 60 59 59 59 58 56 55 55 64 73 83 98 96 72 76 83 84 89 86 86 85 83 86 86 81 74 79 82 87 87 85 77 82 76 68 68 61 73 74 76 73 73 72 58
60 60 60 60 60 59 59 58 56 55 55 62 72 74 86 87 85 80 79 81 82 89 87 88 85 87 82 79 83 77 80 86 87 86 75 79 77 71 65 65 60 64 67 71 69 63 66
60 60 60 60 60 59 59 58 56 56 55 61 74 76 85 75 78 79 81 81 80 80 87 88 82 83 80 75 77 77 81 83 85 74 82 82 70 75 77 76 72 73 73 71 67 64 62
60 60 60 60 60 59 59 58 57 56 55 65 69 72 77 72 78 79 73 77 78 83 84 81 80 83 83 77 78 76 80 81 79 82 81 84 71 75 72 77 77 69 76 72 66 55 59
59 60 60 60 60 59 59 58 58 56 56 71 77 77 73 66 74 74 77 80 80 83 86 88 85 83 81 83 87 88 88 87 86 81 78 77 74 70 64 74 73 65 70 70 67 64 69
59 59 60 60 60 59 59 59 58 57 56 66 72 70 66 65 72 73 79 81 81 83 79 86 87 83 88 94 91 89 87 85 86 84 86 75 73 71 65 69 55 71 72 74 70 78 79
59 59 60 60 60 59 59 59 59 58 58 63 70 69 67 63 71 73 74 77 80 83 80 82 87 89 94 87 77 72 73 74 77 82 82 83 75 67 63 63 69 70 67 70 73 74 80
59 59 59 59 59 59 59 59 59 59 58 64 70 72 67 63 67 75 72 75 73 75 78 81 88 92 90 81 74 63 61 67 65 71 83 81 78 69 66 59 56 65 75 82 82 67 76
58 58 58 59 59 59 59 59 59 59 59 61 67 71 66 62 70 73 70 71 77 76 74 79 79 82 87 76 69 65 64 73 63 64 67 68 68 65 65 62 68 73 77 81 62 65 78
58 58 58 58 59 59 59 59 59 59 59 61 67 69 63 62 68 73 76 70 72 74 68 75 73 78 77 70 69 67 67 70 68 71 69 67 64 65 66 62 56 77 78 67 74 81 82
57 57 57 58 58 58 58 58 58 59 59 59 61 68 68 57 64 71 72 75 74 75 70 74 74 75 78 72 73 71 67 72 68 63 77 66 73 67 67 66 72 77 76 73 83 81 81

GFSGBSN_sfc_temp_141.txt.gz
Temp
63 63 63 62 62 61 61 62 62 61 61 61 61 60 60 60 60 60 61 61 61 61 61 61 62 63 61 64 73 86 81 80 83 84 82 82 80 83 78 82 73 69 74 77 78 76 68
63 62 62 62 61 61 61 61 61 61 61 60 60 60 60 60 60 60 61 60 60 60 61 62 63 63 60 65 89 87 86 83 85 84 83 84 83 86 83 80 69 73 69 74 79 74 72
62 62 62 62 61 61 61 61 61 60 60 60 60 60 60 60 60 60 60 60 60 60 61 63 64 67 68 73 93 90 88 82 84 87 82 89 91 83 86 82 78 75 68 70 76 73 70
62 62 62 62 61 60 60 60 60 60 60 60 60 59 59 59 60 60 59 59 59 61 62 65 64 66 64 91 90 92 90 87 89 89 89 90 90 84 80 83 80 73 71 63 64 68 73
62 62 62 62 61 60 60 60 60 60 60 59 59 59 59 59 59 58 58 58 60 62 65 65 60 62 71 86 86 91 92 88 85 87 88 98 85 76 80 71 67 74 62 62 62 68 67
62 61 61 61 61 61 60 60 60 60 60 59 59 59 59 59 58 57 57 57 64 62 66 74 76 66 79 84 88 91 90 93 85 83 83 79 72 66 68 62 54 64 65 64 61 66 66
62 62 61 61 60 60 60 59 59 60 60 59 59 58 58 58 57 56 57 69 66 65 71 72 74 79 88 87 91 87 90 88 85 77 66 74 62 58 67 73 75 77 69 67 64 69 67
62 61 61 61 60 60 59 59 59 59 59 59 58 58 58 57 57 56 54 69 80 83 72 82 85 86 89 91 83 87 90 76 76 67 73 65 60 73 80 80 78 76 70 66 63 67 64
61 61 60 60 60 60 59 59 58 58 58 58 58 58 57 57 56 55 69 79 90 89 70 81 88 87 85 84 83 81 84 81 75 70 71 64 71 82 80 77 76 72 68 65 63 69 76
62 61 60 60 60 59 59 59 58 58 58 58 58 58 57 54 61 75 79 88 90 91 61 74 78 85 87 87 78 92 90 84 79 71 74 70 80 80 76 74 73 62 79 76 73 66 55
63 62 61 60 60 59 59 58 58 58 58 58 58 57 56 55 57 71 85 93 92 83 48 80 81 94 88 78 81 83 91 83 74 75 68 69 74 74 72 75 77 69 80 74 74 64 59
61 61 61 60 60 59 59 58 58 58 58 58 58 57 55 60 60 71 84 88 86 60 53 76 84 80 78 81 83 84 83 83 84 76 73 75 83 76 73 81 80 83 74 71 68 60 49
62 61 61 60 60 59 58 58 58 58 57 57 56 55 54 68 72 86 86 80 58 54 80 75 75 80 77 76 78 78 76 71 65 56 59 72 74 76 81 71 77 74 61 49 46 47 47
62 61 61 60 59 59 58 58 58 57 57 56 55 53 58 68 78 85 81 65 52 70 74 81 79 78 73 78 76 78 73 67 75 71 62 61 58 72 80 71 64 67 61 50 45 46 49
62 61 61 60 59 59 58 58 57 57 57 56 54 71 71 76 74 78 68 56 60 71 82 79 77 71 72 77 72 74 71 70 76 69 58 59 63 79 81 79 72 66 58 68 57 57 49
62 61 61 60 60 59 58 58 57 57 57 56 57 67 76 90 87 78 63 56 67 79 81 80 67 74 67 74 71 68 69 77 76 80 70 65 61 71 80 80 77 67 71 57 55 44 44
61 61 61 60 60 59 59 58 57 57 56 55 62 67 85 92 89 70 59 64 74 83 85 75 73 71 72 73 74 69 71 77 82 80 74 65 61 67 71 64 61 63 60 58 54 48 42
61 60 60 60 60 59 59 58 57 55 54 61 67 63 88 94 67 67 65 71 69 79 85 78 78 75 72 76 70 70 72 76 83 79 68 69 62 55 59 68 72 67 60 59 49 44 46
60 60 60 60 60 59 59 58 56 55 55 55 58 66 85 89 64 66 71 75 79 78 80 79 76 78 78 70 64 72 77 82 84 77 64 68 58 50 53 60 66 62 65 63 59 52 46
60 60 61 60 60 60 59 58 56 55 55 55 59 60 73 77 76 71 69 71 73 84 83 83 79 79 73 67 70 67 73 82 83 78 74 70 60 56 51 55 58 57 65 63 57 48 48
60 60 60 61 60 60 59 58 57 55 55 55 62 63 69 61 64 66 71 71 71 71 82 80 74 77 71 61 67 67 74 76 80 72 74 67 56 58 64 69 66 65 66 68 58 54 50
59 60 60 60 60 60 59 58 57 56 55 57 59 61 65 62 67 67 65 67 71 74 76 75 72 78 75 65 67 65 69 66 66 73 69 69 57 58 59 71 67 64 66 68 64 63 58
59 60 60 60 61 60 59 58 58 56 55 63 67 68 62 58 63 63 64 68 72 77 79 80 80 76 73 75 80 75 75 73 66 65 66 65 59 55 50 64 66 56 62 65 65 62 62
59 59 60 60 61 60 60 59 58 58 56 60 62 62 58 56 62 63 69 72 71 72 70 81 82 75 79 84 82 79 76 73 74 72 70 62 58 56 50 55 45 55 66 71 69 66 61
59 59 59 60 60 60 60 59 59 58 57 58 62 61 59 53 61 63 68 68 69 70 71 76 81 80 83 79 66 62 61 60 67 72 68 68 60 52 48 47 55 62 66 66 61 55 63
58 58 59 60 60 60 60 60 59 59 58 58 62 65 60 54 56 65 62 65 62 64 68 74 81 83 78 69 63 53 52 59 58 62 67 67 64 56 51 45 45 57 72 77 72 49 63
58 58 58 59 59 59 59 60 59 59 58 57 60 65 60 53 60 63 60 61 68 65 61 68 69 72 76 62 58 55 55 66 55 55 54 56 55 52 51 49 56 67 72 74 52 51 65
57 58 58 58 58 59 59 59 59 59 59 58 60 66 59 55 57 63 67 60 63 63 59 64 63 67 66 59 59 57 57 60 59 60 57 55 51 51 51 46 45 69 69 59 63 69 67
57 57 57 58 58 58 58 58 58 58 58 58 57 65 64 55 55 63 64 66 67 68 63 63 64 65 66 62 62 60 58 61 57 52 65 55 59 56 57 54 64 67 65 66 71 67 69

GFSGBSN_sfc_temp_147.txt.gz
Temp
63 62 62 62 62 61 61 61 61 61 61 60 60 60 60 60 60 60 60 60 60 60 60 61 62 62 58 60 69 80 80 80 77 77 75 75 73 71 66 67 68 65 69 72 71 70 69
62 62 62 62 61 61 61 61 61 61 60 60 60 60 60 60 60 61 61 60 59 60 61 62 63 63 56 60 81 79 76 75 76 75 73 74 74 77 71 70 68 69 69 70 71 70 69
63 62 62 62 61 60 60 60 61 61 60 60 60 60 60 60 60 59 59 59 59 60 60 62 64 64 60 71 82 78 75 72 72 76 74 77 77 71 79 68 76 70 64 69 69 69 67
62 62 62 61 61 60 60 60 60 60 60 60 60 60 60 60 60 60 58 58 59 60 61 63 65 59 63 80 78 78 74 73 76 74 75 78 76 73 70 74 72 69 65 58 66 69 71
62 62 61 61 61 61 60 60 60 59 59 59 59 59 59 59 59 58 57 57 59 62 63 65 56 56 66 82 78 80 80 78 75 74 76 88 75 68 70 63 58 62 58 58 62 68 68
62 61 61 61 61 60 60 60 59 59 59 59 59 59 58 58 58 57 56 58 62 62 63 67 69 60 71 75 78 82 79 82 76 73 74 72 64 60 58 56 49 56 57 61 59 64 66
62 62 62 61 60 60 60 60 59 59 59 59 59 58 58 58 57 56 53 57 64 62 60 68 69 72 76 78 83 78 82 80 75 70 59 63 59 56 62 67 65 65 63 61 62 66 64
62 62 61 61 60 60 60 59 59 59 59 59 58 58 58 57 57 55 51 64 66 69 62 72 75 74 78 78 74 77 81 70 67 61 61 58 53 65 68 67 66 63 62 60 65 67 63
61 61 61 60 60 60 60 59 59 59 58 58 58 58 57 57 56 54 58 65 72 66 58 70 73 74 75 77 75 75 78 72 65 60 60 55 63 70 68 66 63 59 60 60 63 64 65
61 61 60 60 60 60 59 59 59 58 58 58 58 58 57 54 59 57 64 67 69 69 53 63 67 77 77 76 71 83 81 75 66 64 62 59 67 69 65 65 64 51 69 69 69 59 50
61 61 60 60 60 60 59 59 58 58 58 58 58 57 55 54 51 59 72 64 68 69 45 71 71 82 74 72 72 74 79 74 66 67 63 62 64 64 63 66 68 64 73 69 67 57 52
61 61 61 61 60 60 59 59 58 58 58 58 57 57 56 52 48 58 63 64 69 55 46 66 74 71 69 68 71 73 75 74 74 67 63 66 72 70 69 71 72 74 67 62 57 53 46
61 61 61 60 60 59 59 59 58 58 57 57 56 55 54 59 60 62 63 66 53 46 67 65 65 67 65 65 68 69 67 64 60 52 51 63 66 68 73 63 68 64 55 44 44 44 44
61 60 60 60 59 59 59 59 58 57 57 56 55 53 53 56 55 62 63 59 43 60 60 68 67 64 64 66 66 67 62 59 63 60 52 52 53 64 70 67 62 58 55 47 40 40 45
61 60 60 60 59 59 59 58 58 57 57 55 53 52 52 57 59 60 61 48 51 58 67 66 64 59 57 65 66 64 62 60 65 63 57 49 56 69 71 69 68 58 51 55 45 42 43
61 60 60 60 59 59 59 58 57 57 56 55 49 48 55 62 63 62 58 49 53 65 69 65 56 59 57 61 63 61 60 67 68 69 64 60 52 60 69 70 68 59 62 50 46 40 37
60 60 60 60 59 59 59 58 57 56 55 54 51 54 66 63 63 60 53 55 59 68 72 63 58 58 61 59 63 59 63 68 72 68 68 58 55 57 62 57 55 58 52 48 46 43 39
60 59 59 59 59 59 59 58 57 55 53 52 48 51 67 67 56 50 50 59 61 64 68 67 63 61 60 65 58 61 63 68 75 71 63 57 51 48 53 60 63 58 53 50 46 43 41
59 59 59 59 59 60 59 58 56 54 53 51 43 45 62 66 49 48 56 63 67 64 63 66 65 64 64 62 56 63 66 73 75 69 63 62 49 45 51 55 59 55 56 51 47 44 41
60 59 60 60 60 60 59 58 56 54 54 49 46 47 53 55 52 50 51 56 60 71 67 70 69 66 60 59 60 62 64 73 73 71 68 64 49 50 47 51 53 53 58 54 49 44 42
60 60 60 60 60 60 59 58 56 55 54 49 47 47 49 45 49 49 48 56 60 60 66 66 64 66 58 55 57 59 64 64 70 67 64 61 52 48 52 58 58 58 59 58 53 50 48
59 59 59 60 60 60 59 58 57 55 53 49 47 47 49 46 48 49 48 51 57 60 60 60 59 65 64 58 62 60 63 57 61 61 58 56 51 50 50 60 60 57 61 61 58 55 53
58 59 59 59 59 60 59 58 57 55 53 47 48 49 49 46 46 46 48 52 56 60 62 68 67 64 63 67 70 66 68 65 65 63 57 55 52 48 45 53 56 51 57 57 57 57 56
58 59 59 59 59 60 59 58 58 56 54 49 48 47 45 43 47 50 54 55 56 58 56 66 67 62 70 71 69 67 63 61 65 57 59 53 49 46 45 46 40 54 59 64 60 60 59
58 58 58 59 59 60 59 59 58 57 56 49 49 48 45 41 49 53 54 53 55 58 57 65 70 71 71 67 61 56 53 56 58 59 57 58 50 44 45 42 49 57 59 58 58 56 61
57 57 58 58 59 59 59 58 59 58 57 50 49 50 52 47 47 55 52 53 49 51 56 63 69 69 71 61 58 48 48 53 53 55 52 53 52 51 41 42 42 52 63 65 64 49 60
57 57 57 58 59 59 59 59 59 58 57 51 49 51 50 47 50 49 49 52 56 54 52 57 60 63 65 55 52 51 50 59 51 51 50 48 46 47 43 43 49 58 65 64 50 51 60
57 57 57 57 58 58 59 59 59 58 58 52 50 54 53 50 49 55 59 54 55 54 50 57 58 60 53 50 51 52 52 55 55 56 52 50 47 45 42 41 43 64 63 57 58 55 61
56 56 56 57 57 58 58 58 58 57 57 56 49 53 57 51 49 58 60 62 62 63 53 54 55 56 57 52 52 53 54 54 51 49 56 49 53 50 51 49 57 59 62 60 59 61 61